Weather History for Grants-Milan, NM

Change the Weather History Date:

Saturday, May 5, 2012

  Actual Average Record
Temperature  
Mean Temperature 62 °F -  
Max Temperature 78 °F 72 °F 83 °F (1963)
Min Temperature 46 °F 37 °F 25 °F (1953)
Degree Days  
Heating Degree Days 4    
Growing Degree Days 12 (Base 50)    
Moisture  
Dew Point 13 °F    
Average Humidity 15    
Maximum Humidity 29    
Minimum Humidity 7    
Precipitation  
Precipitation 0.00 in - - ()
Sea Level Pressure  
Sea Level Pressure 29.86 in    
Wind  
Wind Speed 7 mph (WNW)    
Max Wind Speed 21 mph    
Max Gust Speed 26 mph    
Averages and records for this station are not official NWS values.
T = Trace of Precipitation, MM = Missing Value Source: NWS Daily Summary

Daily Weather History Graph

Daily Weather History Graph

Search for Another Location

Airport:

Trip Planner

Search our weather history database for the weather conditions in past years. The results will help you decide how hot, cold, wet, or windy it might be!

Date:

Astronomy

May. 05, 2012 Rise Set
Actual Time 6:15 AM MDT 8:01 PM MDT
Civil Twilight 5:48 AM MDT 8:28 PM MDT
Nautical Twilight 5:15 AM MDT 9:01 PM MDT
Astronomical Twilight 4:40 AM MDT 9:37 PM MDT
Moon 7:56 PM MDT (5/5) 5:40 AM MDT (5/5)
Length of Visible Light 14h 40m
Length of Day
13h 45m
Full, 100% of the Moon is Illuminated
May 5
Full
May 5
Full
May 12
Last Quarter
May 20
New
May 28
First Quarter

Hourly Weather History & Observations

Time (MDT) Temp. Dew Point Humidity Pressure Visibility Wind Dir Wind Speed Gust Speed Precip Events Conditions
12:53 AM 55.9 °F 12.9 °F 18% 29.90 in - Calm Calm - N/A   Unknown
1:53 AM 54.0 °F 14.0 °F 21% 29.89 in - Calm Calm - N/A   Unknown
2:53 AM 48.9 °F 15.1 °F 26% 29.89 in - NW 6.9 mph - N/A   Unknown
3:53 AM 57.0 °F 14.0 °F 18% 29.87 in - North 9.2 mph 21.9 mph N/A   Unknown
4:53 AM 55.0 °F 15.1 °F 21% 29.86 in - NW 12.7 mph - N/A   Unknown
5:53 AM 46.9 °F 16.0 °F 29% 29.90 in - WNW 6.9 mph - N/A   Unknown
6:53 AM 50.0 °F 18.0 °F 28% 29.90 in - WNW 4.6 mph - N/A   Unknown
7:53 AM 59.0 °F 19.0 °F 21% 29.91 in - NE 5.8 mph - N/A   Unknown
8:53 AM 62.1 °F 17.1 °F 18% 29.92 in - North 5.8 mph - N/A   Unknown
9:53 AM 66.0 °F 17.1 °F 15% 29.91 in - North 6.9 mph - N/A   Unknown
10:53 AM 71.1 °F 12.0 °F 10% 29.89 in - NW 9.2 mph 18.4 mph N/A   Unknown
11:53 AM 72.0 °F 12.0 °F 10% 29.89 in - WNW 11.5 mph 18.4 mph N/A   Unknown
12:53 PM 73.9 °F 12.0 °F 9% 29.86 in - WNW 12.7 mph 24.2 mph N/A   Unknown
1:53 PM 75.9 °F 12.0 °F 9% 29.84 in - WNW 8.1 mph 16.1 mph N/A   Unknown
2:53 PM 75.9 °F 8.1 °F 7% 29.83 in - West 8.1 mph 24.2 mph N/A   Unknown
3:53 PM 75.9 °F 9.0 °F 8% 29.79 in - SW 6.9 mph 18.4 mph N/A   Unknown
4:53 PM 75.9 °F 10.0 °F 8% 29.78 in - West 17.3 mph 21.9 mph N/A   Unknown
5:27 PM 77.0 °F 8.6 °F 7% 30.04 in - West 17.3 mph 21.9 mph N/A   Unknown
5:53 PM 75.9 °F 10.0 °F 8% 29.81 in - West 20.7 mph 26.5 mph N/A   Unknown
6:53 PM 73.0 °F 10.9 °F 9% 29.80 in - West 12.7 mph - N/A   Unknown
7:53 PM 68.0 °F 10.9 °F 11% 29.79 in - West 9.2 mph - N/A   Unknown
8:53 PM 62.1 °F 12.0 °F 14% 29.83 in - WSW 10.4 mph - N/A   Unknown
9:53 PM 61.0 °F 12.9 °F 15% 29.83 in - West 12.7 mph - N/A   Unknown
10:53 PM 60.1 °F 14.0 °F 16% 29.83 in - West 11.5 mph - N/A   Unknown
11:53 PM 60.1 °F 16.0 °F 18% 29.84 in - WSW 12.7 mph - N/A   Unknown